This is the latest recevied weather packets stored in our database for station/object N8GD. If no packets are shown the sender has not sent any weather packets the latest 10 day(s).
| Time | Temp. | Humidity | Pressure | Rain* | Wind** | Luminosity | Snow |
|---|---|---|---|---|---|---|---|
| 1777499505 | 13.89° C | 92% | 1006.9 hPa | 0 mm | - | - | - |
| 1777498662 | 13.89° C | 92% | 1006.7 hPa | 0 mm | - | - | - |
| 1777497761 | 13.89° C | 91% | 1006.5 hPa | 0 mm | - | - | - |
| 1777496863 | 14.44° C | 92% | 1006.2 hPa | 0 mm | - | - | - |
| 1777495963 | 14.44° C | 92% | 1006.3 hPa | 0 mm | - | - | - |
| 1777495904 | 14.44° C | 92% | 1006.3 hPa | 0 mm | - | - | - |
| 1777495063 | 14.44° C | 92% | 1006.2 hPa | 0 mm | - | - | - |
| 1777494162 | 14.44° C | 92% | 1006.1 hPa | 0 mm | - | - | - |
| 1777494105 | 14.44° C | 92% | 1006.1 hPa | 0 mm | - | - | - |
| 1777493263 | 14.44° C | 92% | 1006.2 hPa | 0 mm | - | - | - |
| 1777492362 | 14.44° C | 92% | 1006.2 hPa | 0.76 mm | - | - | - |
| 1777492304 | 14.44° C | 92% | 1006.2 hPa | 0.76 mm | - | - | - |
| 1777491462 | 14.44° C | 93% | 1006.2 hPa | 1.02 mm | - | - | - |
| 1777490561 | 14.44° C | 93% | 1006.2 hPa | 1.27 mm | - | - | - |
| 1777490504 | 14.44° C | 93% | 1006.2 hPa | 1.27 mm | - | - | - |
| 1777489662 | 15° C | 94% | 1006.1 hPa | 1.27 mm | - | - | - |
| 1777488763 | 14.44° C | 94% | 1006.2 hPa | 1.02 mm | - | - | - |
| 1777488703 | 14.44° C | 94% | 1006.2 hPa | 1.52 mm | - | - | - |
| 1777487861 | 15° C | 94% | 1006.4 hPa | 1.52 mm | - | - | - |
| 1777486963 | 15° C | 94% | 1006.4 hPa | 1.52 mm | - | - | - |
| 1777486909 | 15° C | 94% | 1006.4 hPa | 1.52 mm | - | - | - |
| 1777486062 | 15.56° C | 93% | 1006.2 hPa | 1.52 mm | - | - | - |
| 1777485162 | 15.56° C | 93% | 1006.4 hPa | 0.51 mm | - | - | - |
| 1777484262 | 16.11° C | 92% | 1006.4 hPa | 0.25 mm | - | - | - |
| 1777484228 | 16.11° C | 92% | 1006.4 hPa | 0.25 mm | - | - | - |
* Rain latest hour (hover to see other rain measurements)
** Current wind speed in m/s (hover to see current wind gust speed)